Torna al catalogo

CZ-4B R/B

AttivoSSO
NORAD 25942·ROCKET BODY·🇨🇳 China

Lanciato Oct 14, 1999 da Taiyuan Satellite Launch Center

Loading…

Prossimi Passaggi (prossime 24 ore)

TLE

AggiornatoSource: Space-Track

Epoca: Sep 14, 2026, 02:27 UTC

1 25942U 99057C   26257.10250605  .00000174  00000-0  69227-4 0  9995
2 25942  98.7133 310.7911 0094726 313.2348  46.0958 14.38465142408371

Traccia CZ-4B R/B in tempo reale con AllMySat

Download on the App Store